Wind_Speed
20 21 22 22 21 21 21 20 21 23 23 22 18 13 8 8 11 10 8 4 9 13 14 16 17 13 12 10 10 11 10 12 12 15 11 9 15 6 19 19 17 18 15 12 11
21 22 22 23 23 21 20 20 22 24 23 21 18 11 7 9 13 17 5 8 12 11 9 14 10 7 9 10 6 7 8 6 12 13 9 12 18 10 16 17 16 15 16 14 11
22 23 23 23 23 21 20 22 24 23 22 18 16 10 8 9 8 2 4 8 10 8 10 15 15 9 12 9 7 8 5 11 9 7 8 14 17 16 11 13 11 11 11 12 9
22 23 24 25 24 22 20 23 25 22 18 15 14 10 6 2 3 4 10 7 7 6 10 14 11 12 9 12 11 4 2 10 8 10 6 11 15 14 13 9 6 8 8 9 9
23 24 24 26 25 23 22 23 23 19 14 13 12 7 1 7 8 3 8 9 10 9 12 11 11 12 14 13 6 10 10 8 5 7 7 4 15 13 11 5 7 8 12 9 14
23 24 25 27 26 23 23 23 20 16 12 10 8 5 5 12 2 4 6 6 7 9 11 11 11 11 9 4 8 10 12 7 4 7 2 12 13 14 9 6 10 14 14 21 22
24 24 25 27 25 24 24 22 18 14 9 7 7 5 9 10 1 4 3 4 5 10 7 7 11 8 2 4 2 7 13 8 3 6 2 19 13 11 7 7 13 15 20 20 22
25 26 26 29 22 24 25 21 15 11 8 6 7 7 6 1 3 2 4 4 4 5 4 5 8 10 6 8 7 10 11 7 5 7 3 3 13 11 8 13 16 20 17 18 19
25 28 28 27 23 24 22 17 12 9 10 6 7 11 9 5 7 1 4 4 3 4 4 5 5 5 3 11 10 14 12 12 7 10 8 7 11 11 12 14 16 17 17 16 17
27 27 29 26 24 23 19 10 6 10 9 8 17 8 7 7 4 4 3 4 4 7 7 8 6 6 10 12 13 15 16 17 10 12 11 19 15 13 14 14 16 16 15 15 16
31 29 29 25 22 20 16 8 4 6 14 8 7 10 5 4 6 4 5 6 6 6 9 11 9 11 16 17 18 19 16 16 11 17 20 17 16 14 14 14 14 14 14 15 15
33 31 30 25 21 14 11 8 8 6 8 16 12 8 1 5 5 4 8 8 7 11 12 9 14 5 5 1 9 9 17 16 10 17 18 18 17 14 13 13 13 13 12 13 14
28 33 31 25 15 6 8 6 9 10 6 10 14 14 10 11 4 5 6 11 9 10 12 12 9 2 4 5 10 8 17 17 18 11 19 19 15 14 14 13 13 12 12 12 13
26 31 33 26 6 13 7 7 9 9 5 11 11 7 8 5 6 1 5 6 4 13 8 7 4 6 8 11 8 10 5 16 20 18 16 21 8 14 15 13 11 11 10 11 11
25 27 33 13 15 7 10 11 9 5 4 15 14 9 12 10 10 8 5 4 8 8 3 6 8 10 13 8 5 7 4 9 16 16 10 19 5 13 14 14 11 12 11 11 10
24 25 27 12 12 12 12 11 7 2 7 8 11 10 12 14 8 7 9 7 4 6 6 10 4 2 4 7 4 12 9 6 9 9 8 12 14 13 14 14 11 10 12 11 11
23 24 25 16 6 11 12 7 4 5 6 11 12 13 17 12 12 9 11 12 8 10 14 7 7 2 8 11 6 12 14 6 7 6 8 12 7 11 14 12 12 10 12 11 10
22 26 22 17 16 11 9 5 8 10 16 5 10 14 18 15 13 12 13 14 16 14 14 11 5 11 12 7 7 15 16 3 7 10 9 7 7 10 14 13 11 10 10 10 9
21 21 17 15 13 10 7 9 8 9 14 15 11 12 17 16 10 14 16 16 14 17 9 15 7 8 7 4 8 13 7 4 2 2 7 10 9 10 13 13 10 9 9 7 6
14 22 24 21 11 11 9 13 13 18 15 14 17 15 20 19 10 14 15 15 15 13 1 2 7 10 6 5 6 6 3 5 3 4 5 12 14 7 18 14 12 10 7 6 5
11 5 2 12 11 8 10 10 20 20 13 10 16 15 18 16 17 18 13 6 10 9 9 3 6 8 8 10 13 6 6 5 3 3 5 5 4 12 18 16 13 10 7 4 4
5 3 3 9 7 6 11 21 14 19 19 15 17 24 14 19 18 18 18 11 10 13 9 3 5 8 14 6 6 10 12 11 4 6 4 4 5 10 13 12 9 7 6 4 2
3 5 11 7 6 9 11 24 25 23 23 16 15 14 15 17 15 19 18 10 14 13 10 7 6 8 5 3 6 6 8 9 2 2 9 3 7 10 12 11 9 7 5 5 5
4 3 6 7 10 15 17 21 24 21 26 20 16 15 14 17 14 14 12 8 12 10 7 3 7 8 7 2 12 11 15 12 9 3 3 6 15 14 12 11 12 7 5 6 4
3 4 7 5 9 16 18 16 23 25 22 17 19 20 17 14 16 13 15 12 12 4 6 3 6 7 1 4 8 14 16 15 14 8 6 6 15 18 16 12 8 5 7 5 5
4 4 10 13 16 19 22 20 27 23 25 25 20 20 17 15 17 15 15 17 11 10 13 6 6 8 5 4 2 8 11 16 16 14 11 7 5 8 9 9 6 8 8 5 2
8 17 6 11 20 18 16 26 22 23 25 26 22 17 19 20 13 11 15 15 7 13 14 11 7 9 5 8 3 4 17 17 15 16 15 12 10 8 5 8 10 9 7 5 2
Wind_Direction
349 347 343 341 339 339 338 337 332 326 322 320 320 313 303 293 299 292 268 318 316 302 307 297 283 266 237 255 255 286 270 253 323 85 92 48 77 41 84 67 57 43 80 85 116
347 346 343 341 339 337 336 334 330 324 319 315 314 309 283 308 318 281 219 296 300 305 318 327 299 229 241 240 222 218 229 52 40 61 86 72 56 7 89 61 51 49 35 101 110
344 345 342 339 336 334 336 333 328 323 318 313 310 308 279 311 290 128 351 306 299 289 281 283 285 273 254 230 222 235 290 90 59 13 32 90 73 34 68 59 51 50 46 33 66
343 342 341 337 333 333 334 334 327 322 319 313 305 301 270 284 264 73 338 325 305 300 281 264 247 244 234 228 213 221 22 60 77 38 40 73 98 68 55 56 56 71 48 44 57
341 340 341 334 331 332 335 331 326 322 319 311 302 293 262 218 254 22 348 328 315 278 264 247 246 241 237 209 175 243 109 104 108 89 45 184 98 86 55 55 84 84 71 53 38
338 339 341 331 332 334 329 325 323 318 315 309 298 278 250 242 23 329 333 309 278 274 259 248 248 259 308 226 207 137 126 101 83 100 66 95 57 53 47 61 76 75 74 53 48
337 338 338 331 336 328 323 323 318 310 304 298 285 263 256 249 346 331 302 294 275 282 266 293 299 238 188 63 3 137 130 103 48 168 107 115 74 63 64 89 79 69 67 57 48
335 335 335 331 334 329 325 321 309 298 289 281 275 256 268 167 286 316 285 235 240 250 290 284 257 274 203 107 154 186 176 180 131 169 152 293 94 70 49 82 79 69 64 63 57
338 333 334 335 330 333 328 317 300 287 275 260 279 216 250 158 211 233 276 258 203 228 240 260 265 202 204 178 178 199 198 179 130 187 160 168 109 79 70 86 83 81 75 67 63
339 336 335 338 334 334 329 311 283 283 263 251 260 237 206 220 118 229 194 216 231 183 199 209 210 197 211 207 197 194 228 168 132 168 141 112 108 104 98 89 93 87 79 73 66
339 336 337 338 337 334 337 343 214 210 228 227 289 245 127 113 192 197 184 195 207 237 216 201 211 205 202 212 240 290 199 106 136 126 121 121 118 106 104 99 89 82 81 80 72
342 337 337 336 333 329 309 285 41 329 290 228 261 277 30 205 177 175 182 209 199 217 219 178 227 77 18 295 238 191 128 130 122 133 129 128 120 115 101 90 89 90 76 66 71
338 341 337 336 328 330 291 347 331 337 255 200 216 223 197 209 221 147 228 210 215 224 202 205 106 129 173 199 208 167 143 155 170 182 136 132 131 129 125 118 112 92 81 77 68
333 339 336 339 317 332 285 340 331 336 275 196 196 219 169 208 207 259 292 299 246 196 144 80 120 170 188 186 221 131 118 180 165 176 164 180 139 146 141 127 113 101 89 78 64
329 333 339 338 300 317 343 324 313 287 285 139 166 127 176 191 125 173 197 236 225 112 79 128 172 191 202 114 360 154 138 151 174 197 158 201 226 154 154 141 124 105 85 76 71
322 325 334 344 297 282 318 311 292 245 243 189 147 192 176 212 209 126 182 238 309 144 209 152 167 227 125 94 345 138 150 174 195 219 231 190 209 173 183 146 123 113 98 90 79
316 318 313 297 262 334 321 271 203 193 249 185 189 191 197 187 187 184 183 190 172 179 152 143 182 100 142 136 159 183 168 150 192 185 236 155 177 105 109 115 123 118 112 101 86
310 312 302 277 269 300 285 219 218 223 240 74 187 196 203 188 197 198 190 197 220 208 163 179 181 168 202 209 187 207 203 220 200 201 154 160 178 151 124 120 121 121 113 108 92
311 306 287 276 258 246 239 219 210 224 207 235 195 196 208 194 212 201 212 209 190 217 191 200 125 107 187 237 287 178 223 313 261 242 160 155 88 104 137 140 142 134 124 109 89
298 300 279 254 206 222 230 228 227 247 286 197 205 203 205 195 194 198 201 214 196 212 274 287 124 184 156 260 255 269 183 187 241 203 208 173 167 173 173 166 161 157 159 130 91
296 283 56 159 172 222 222 229 233 254 268 247 230 220 224 194 196 198 200 161 167 183 245 208 129 157 153 208 189 184 204 236 270 316 235 191 129 131 164 164 163 162 147 118 86
274 254 169 177 208 240 232 224 242 239 243 256 258 237 221 218 199 219 223 179 178 185 197 157 206 163 196 86 344 251 207 202 213 185 242 347 103 118 140 132 142 146 150 159 114
259 263 228 205 233 232 266 235 246 254 250 236 242 239 242 245 192 224 212 123 158 185 196 155 167 158 186 234 216 229 225 199 104 301 211 184 138 137 138 139 155 159 196 157 142
287 264 229 218 242 250 227 249 238 236 253 243 242 240 232 244 175 208 148 157 166 186 34 89 211 191 206 188 156 195 201 203 176 191 231 195 138 160 164 173 174 171 170 174 116
217 268 231 212 241 240 258 247 238 237 227 248 222 236 217 219 185 215 148 160 188 126 163 237 222 202 72 54 161 183 191 191 199 198 193 213 172 180 185 186 187 162 158 177 199
250 258 257 263 256 225 232 248 243 244 232 227 224 225 210 223 205 200 166 177 176 169 184 221 198 183 174 169 185 195 201 196 209 205 207 221 208 110 131 144 158 188 193 188 208
243 258 264 299 253 244 234 230 246 245 255 233 228 228 220 220 215 227 169 181 193 169 183 172 162 160 205 182 163 272 228 215 211 213 213 214 214 219 161 178 179 191 191 183 138
Height
835 832 828 825 821 816 813 810 808 807 803 801 798 795 793 792 789 787 783 783 781 780 778 772 770 767 765 763 757 755 775 770 759 755 764 747 754 752 753 766 765 766 768 773 777
835 831 828 823 819 816 813 810 807 805 803 800 797 794 794 792 789 783 784 782 781 780 777 772 765 762 762 757 754 764 774 769 759 755 759 757 763 760 766 776 778 776 773 773 778
835 830 827 824 820 815 811 808 806 803 801 799 797 793 793 792 789 777 780 780 779 778 777 777 772 766 764 755 757 757 769 763 769 764 754 758 772 770 772 789 784 786 780 777 775
834 830 826 823 819 813 809 805 804 801 799 797 796 794 793 795 790 779 779 778 777 776 776 773 770 767 766 763 751 766 763 762 769 767 764 765 771 783 784 787 780 781 781 781 779
834 830 825 822 817 811 806 805 803 800 798 796 796 794 794 791 780 779 778 777 775 775 772 768 767 764 763 755 755 764 769 770 772 770 769 767 774 783 787 781 779 779 782 784 783
834 828 824 821 815 808 807 805 801 798 796 796 796 795 794 789 777 777 777 776 775 773 769 767 762 755 759 753 762 753 767 774 773 774 773 773 783 781 786 778 779 781 784 790 794
834 828 823 820 812 809 807 802 798 796 795 796 796 796 790 778 777 776 777 776 776 773 768 766 764 760 756 768 764 762 782 783 781 779 782 775 796 798 785 781 783 787 792 799 804
832 827 821 816 811 808 803 799 797 795 794 795 795 798 782 777 776 776 775 774 775 774 771 772 767 763 760 765 772 779 778 795 788 784 784 787 814 798 787 788 794 797 803 808 813
830 826 820 814 810 804 799 797 796 794 794 794 795 793 774 775 775 776 776 773 773 774 774 773 768 766 770 777 785 781 791 789 792 779 784 790 812 802 794 797 804 808 812 815 818
829 825 819 813 809 805 798 796 794 794 792 792 790 787 773 771 773 775 776 775 772 772 774 772 770 774 774 773 787 781 781 776 789 781 774 796 810 804 803 805 810 814 817 820 822
829 823 817 812 809 806 799 798 796 794 788 775 773 768 770 771 775 771 773 774 773 772 777 769 779 779 766 762 752 753 760 777 781 774 789 803 811 810 808 810 814 817 819 822 824
829 823 817 812 807 805 804 800 799 802 790 774 773 767 768 769 771 770 772 773 775 777 767 772 778 765 761 759 757 748 766 789 785 781 793 806 816 814 815 817 819 821 824 825 827
829 824 817 810 806 804 804 802 802 800 791 767 768 767 770 771 766 769 768 766 770 768 768 768 770 769 767 767 763 756 773 794 798 789 790 806 821 820 817 817 820 823 825 828 830
830 825 819 811 810 807 803 803 803 802 791 765 767 763 766 764 772 768 767 767 762 764 760 773 775 774 771 768 759 775 765 777 785 790 809 786 825 817 816 820 821 824 827 830 832
830 826 821 818 815 805 807 805 804 803 806 750 760 757 759 765 765 769 768 766 763 762 771 781 782 779 776 774 778 782 779 781 786 787 789 796 808 809 807 819 822 824 829 834 835
829 826 823 818 816 811 808 806 805 807 808 758 754 762 764 762 762 764 768 765 756 767 772 777 769 773 772 782 781 784 790 790 788 790 810 787 798 813 809 812 820 824 831 836 837
828 824 823 822 810 810 809 806 806 814 755 753 756 756 760 762 764 766 770 771 772 783 784 786 785 785 779 789 788 787 794 812 815 811 807 779 795 797 803 807 817 825 831 835 838
825 822 816 815 813 812 810 802 810 773 758 739 747 754 760 754 759 763 767 769 756 759 776 785 804 788 780 777 785 790 784 786 808 806 802 789 802 810 805 811 817 823 829 833 837
823 818 812 809 810 812 806 803 790 766 739 743 747 757 759 751 757 764 763 762 755 752 768 771 783 782 780 777 778 779 790 775 790 786 792 794 812 807 810 817 820 824 828 833 836
822 815 805 802 807 810 801 790 769 751 739 729 751 749 756 751 766 764 761 750 752 753 757 753 789 782 787 785 780 783 770 793 790 802 801 783 803 796 814 818 820 826 828 831 834
822 809 798 799 804 803 793 779 766 749 739 741 744 741 742 746 756 759 753 752 750 763 764 757 769 789 790 790 781 788 786 783 776 782 790 785 789 778 800 807 815 819 826 830 834
822 811 799 801 801 787 789 770 761 749 739 743 736 735 737 735 746 750 748 751 753 761 772 760 767 794 787 772 777 768 774 778 787 795 783 787 808 786 794 803 811 817 824 828 832
817 806 798 800 795 794 779 768 762 753 743 742 738 736 730 733 745 743 743 746 758 765 764 766 773 786 791 789 782 785 776 769 778 789 784 797 809 795 802 809 816 820 823 825 830
822 803 794 794 786 782 780 768 758 751 746 736 735 737 736 736 730 740 747 761 762 762 775 770 764 771 779 764 770 787 779 778 787 803 791 786 802 804 807 811 815 818 820 824 828
819 802 787 785 791 782 779 764 757 747 740 734 735 735 738 739 736 740 750 766 769 780 774 774 773 764 770 766 765 772 774 779 786 789 797 786 789 795 799 805 807 813 818 824 828
814 807 792 777 769 769 771 767 754 742 736 734 734 733 733 737 733 741 749 763 766 777 776 774 775 770 784 778 776 774 770 773 779 781 787 787 791 784 791 799 810 815 819 822 825
808 809 811 791 772 763 761 757 750 749 732 724 728 731 732 728 726 729 741 754 755 767 769 773 772 780 791 780 786 800 781 771 772 773 779 792 788 784 793 798 807 812 815 820 825